Temperature
24 24 24 24 24 24 23 23 22 23 23 24 23 23 23 22 22 21 20 20 19 18 18 18 17 17 17 16 16 16 16 16 16 16 16 16 16 16 15 15 15 15 15 15
23 24 24 23 24 24 23 23 23 23 23 24 24 23 23 22 21 21 20 19 19 18 18 18 18 17 17 16 16 16 16 16 16 15 15 16 15 15 15 15 15 15 15 15
22 23 23 22 23 24 23 24 24 23 23 24 23 23 22 22 21 20 20 19 19 18 18 18 17 17 17 16 16 16 16 15 15 15 15 15 15 15 15 15 15 15 15 15
22 22 21 23 24 24 23 24 24 24 24 23 23 22 22 21 20 20 19 19 18 18 18 17 17 17 17 16 16 16 15 15 15 15 15 15 15 15 15 15 15 15 14 14
21 21 22 23 24 24 23 23 24 24 23 23 22 22 21 20 20 19 19 18 18 18 18 17 17 17 16 16 16 16 15 15 15 15 15 15 15 15 15 14 14 14 14 14
21 20 21 22 23 23 23 22 23 23 23 22 22 20 20 20 19 19 18 18 18 17 17 17 17 17 16 16 16 15 15 15 15 15 15 14 14 14 14 14 14 14 14 14
20 20 21 23 23 23 21 21 23 22 22 21 21 20 20 19 19 18 18 18 17 17 17 17 17 16 16 16 16 15 15 15 15 15 15 14 14 14 14 14 14 14 14 14
20 20 21 22 22 22 22 22 22 22 21 21 20 20 19 19 18 18 18 17 17 17 17 16 16 16 16 15 15 15 15 15 15 14 14 14 14 14 14 14 13 13 13 13
21 21 22 22 22 22 21 21 21 21 20 20 19 19 18 18 18 17 17 17 17 16 16 16 16 15 15 15 15 15 15 15 14 14 14 14 14 14 14 13 13 13 13 13
21 21 21 21 21 20 20 20 19 19 19 19 19 18 18 17 17 17 17 16 16 16 16 15 15 15 15 15 15 15 14 14 14 14 14 14 14 14 13 13 13 13 13 13
20 21 21 20 20 19 19 19 18 18 18 18 18 18 17 17 17 16 16 16 16 15 15 15 15 15 15 15 14 14 14 14 14 13 13 13 13 13 13 13 13 13 13 13
19 20 20 19 19 18 18 18 18 17 17 17 17 17 16 16 16 16 16 15 15 15 15 15 15 14 14 14 14 14 13 13 13 13 13 13 13 13 13 13 13 13 13 13
19 19 18 18 18 18 17 17 17 17 17 16 16 16 16 16 16 15 15 15 15 15 14 14 14 14 14 14 13 13 13 13 13 13 13 13 13 13 13 13 12 12 12 12
18 18 18 17 17 17 17 17 16 16 16 16 16 16 15 15 15 15 15 15 14 14 14 14 14 14 13 13 13 13 13 13 13 12 12 12 12 12 12 12 12 12 12 12
17 17 17 17 16 16 16 16 16 16 15 15 15 15 15 15 15 14 14 14 14 14 14 13 13 13 13 13 13 12 12 12 12 12 12 12 12 12 12 12 12 12 12 11
16 16 16 16 15 15 15 15 15 15 15 15 15 15 14 14 14 14 14 14 14 13 13 13 13 13 13 13 12 12 12 12 12 12 12 11 11 11 11 11 11 11 11 11
15 15 15 15 15 15 15 14 14 14 14 14 14 14 14 14 14 13 13 13 13 13 13 13 13 13 12 12 12 12 12 12 12 11 11 11 11 11 11 11 11 10 10 10
14 14 14 14 14 14 14 14 14 14 14 14 14 13 13 13 13 13 13 13 13 12 12 12 12 12 12 12 12 12 11 11 11 11 11 11 10 10 10 10 10 10 10 10
13 13 13 13 13 13 13 13 13 13 13 13 13 13 13 13 13 12 12 12 12 12 12 12 12 12 12 11 11 11 11 11 11 11 11 10 10 10 10 10 9 9 9 9
13 13 13 13 13 13 12 12 12 12 12 12 12 12 12 12 12 12 12 12 12 12 11 11 11 11 11 11 11 11 11 11 11 10 10 10 10 9 9 9 9 9 9 9
12 12 12 12 12 12 12 12 12 12 12 12 12 11 11 11 11 11 11 11 11 11 11 11 11 10 10 10 10 10 10 10 10 10 10 9 9 9 9 9 9 9 8 8
11 11 11 11 11 11 11 11 11 11 11 11 11 11 11 11 11 11 11 10 10 10 10 10 10 10 10 10 10 10 9 9 9 9 9 9 9 9 8 8 8 8 8 8
11 11 11 11 11 11 11 11 11 10 10 10 10 10 10 10 10 10 10 10 10 10 10 9 9 9 9 9 9 9 9 9 9 9 9 9 8 8 8 8 8 8 8 7
10 10 10 10 10 10 10 10 10 10 10 9 9 9 9 9 9 9 9 9 9 9 9 9 9 9 9 9 8 8 8 8 8 8 8 8 8 8 8 8 7 7 7 7
9 9 9 9 9 9 9 9 9 9 9 9 8 8 8 8 8 8 8 8 8 8 8 8 8 8 8 8 8 8 8 8 7 7 7 7 7 7 7 7 7 7 7 6
8 8 8 8 8 8 8 8 8 8 8 8 7 8 8 8 8 8 8 8 7 7 7 7 7 7 7 7 7 7 7 7 7 6 6 6 6 6 6 6 6 6 6 6
7 7 7 7 7 8 8 7 7 7 7 7 7 7 7 7 7 7 7 7 7 7 7 7 7 7 7 7 7 6 6 6 6 6 6 6 6 6 5 5 5 5 5 5
Wind_Speed
8 6 6 7 7 7 8 7 7 6 4 2 2 2 3 4 3 4 4 3 4 4 4 4 3 3 3 2 2 3 2 3 3 2 2 2 3 2 2 2 2 2 2 2
9 8 7 10 10 9 9 8 8 8 6 3 0 0 1 2 3 3 3 3 3 3 3 3 3 3 3 3 3 3 4 3 2 2 2 2 2 3 3 2 2 2 2 2
8 7 8 10 9 9 7 8 8 8 4 0 1 1 1 1 3 3 3 3 2 3 2 3 2 2 3 3 3 3 3 3 3 3 2 2 3 3 3 3 2 2 2 2
7 8 10 4 2 3 6 7 6 5 3 1 1 0 1 2 1 2 3 3 2 1 2 2 2 2 2 3 3 3 3 3 3 3 3 2 2 3 3 3 3 3 2 2
6 8 9 5 4 3 5 7 4 3 2 0 1 1 2 2 2 2 2 2 1 1 2 2 2 2 2 3 2 2 3 3 3 4 4 4 3 3 3 3 3 4 3 3
7 8 8 2 3 1 4 6 3 2 1 0 1 2 1 2 2 1 1 1 1 1 1 2 2 2 2 2 3 3 3 3 4 4 4 5 5 4 3 3 3 4 3 3
11 10 6 2 4 2 4 1 2 0 0 1 2 1 1 1 1 1 1 1 1 1 2 1 1 1 2 2 2 2 2 2 3 4 4 4 4 4 4 4 4 3 3 3
10 11 7 5 4 4 1 2 2 2 1 1 1 1 1 1 1 1 1 1 1 1 2 2 2 2 2 1 1 1 1 2 3 4 4 4 4 4 4 4 4 4 3 3
5 3 1 2 1 2 3 3 3 3 2 2 1 1 1 1 1 1 2 1 1 1 2 2 2 2 2 1 1 1 1 2 3 4 4 4 4 5 4 4 4 4 4 4
7 5 4 3 3 1 2 4 4 4 3 3 2 2 2 2 1 1 2 1 1 2 3 2 2 2 2 1 2 2 3 3 2 3 3 3 3 3 3 4 4 4 4 4
9 7 4 4 3 3 2 3 4 4 4 4 3 3 2 2 2 2 2 2 2 3 3 3 3 3 2 2 2 3 2 2 1 1 3 3 2 2 4 4 5 5 5 5
7 6 5 4 4 4 4 5 5 5 5 5 4 3 4 4 2 2 2 2 2 2 3 4 3 3 3 2 3 3 2 2 2 2 2 3 3 2 1 3 4 5 5 5
7 5 5 5 5 5 5 5 5 5 5 5 4 4 5 4 3 2 3 3 3 3 3 3 3 3 3 3 3 3 3 3 2 2 3 3 3 3 2 1 2 3 5 6
5 5 6 5 5 5 5 6 5 5 5 5 4 4 4 3 3 3 3 3 3 3 3 3 3 3 3 3 3 4 3 3 3 3 3 4 4 4 4 3 3 2 3 5
7 6 6 5 5 5 5 5 5 5 5 4 4 4 4 3 3 3 3 3 3 3 3 3 3 4 3 3 4 4 3 3 3 3 3 3 3 3 3 4 3 3 3 3
7 6 5 5 6 6 5 5 5 5 5 5 4 3 3 3 3 3 3 3 3 4 4 3 3 3 3 3 3 3 3 5 4 3 3 3 3 3 3 4 4 4 4 4
6 6 6 6 6 6 6 5 5 5 5 4 4 3 3 3 3 3 3 3 3 3 2 2 2 2 3 3 3 3 3 4 5 5 4 3 3 3 4 3 4 4 4 4
6 6 5 5 4 5 5 5 4 4 4 3 3 3 4 4 4 3 3 3 2 2 2 1 1 2 2 3 3 3 3 3 3 4 3 3 3 3 3 4 4 4 3 4
6 5 5 5 4 3 4 4 3 3 2 2 3 3 3 3 3 2 2 3 2 2 2 0 1 2 2 2 2 2 3 3 3 3 3 4 4 3 3 3 3 3 3 4
6 5 4 4 4 3 3 3 3 3 2 2 2 2 3 3 3 3 3 3 2 2 1 1 2 2 2 1 1 2 2 3 3 3 3 3 4 4 4 4 4 4 4 4
5 4 4 3 3 3 3 3 3 2 1 1 2 2 3 3 2 2 2 2 1 1 0 2 2 1 1 1 2 2 3 3 3 3 3 3 3 4 4 4 4 4 4 4
4 3 3 3 3 3 3 2 2 2 2 2 2 2 2 3 3 3 2 2 1 1 1 2 1 1 1 2 3 3 3 3 3 3 3 3 3 3 4 3 3 3 3 3
3 3 3 3 3 3 2 2 2 2 2 2 3 3 3 3 2 3 3 1 1 2 2 2 2 2 2 3 3 3 3 3 3 3 3 3 3 3 3 3 3 3 3 3
4 4 3 3 2 2 3 3 2 2 2 2 3 3 2 2 3 2 1 1 2 2 2 3 3 4 3 3 3 3 3 3 3 2 2 2 2 2 3 3 3 2 3 3
3 3 3 3 3 3 3 3 2 1 1 1 2 2 2 2 2 2 1 1 2 2 2 3 4 4 3 3 2 2 2 2 2 2 2 2 2 2 2 2 2 2 2 3
3 3 3 3 2 2 2 2 2 2 2 2 2 1 1 1 1 1 1 2 2 2 2 2 2 3 2 2 2 2 2 2 2 2 2 2 2 2 2 2 2 2 2 3
3 2 2 3 3 2 2 1 1 2 2 2 2 1 1 1 1 1 1 1 1 1 1 1 1 1 1 1 1 1 1 1 1 1 1 1 2 2 2 2 2 2 2 2
Wind_Direction
279 282 279 273 264 254 253 259 269 283 288 285 156 157 149 147 150 147 150 153 152 164 173 178 182 178 173 177 174 182 190 204 203 200 179 169 160 162 158 148 151 135 126 121
269 268 265 263 258 253 252 260 267 275 278 296 233 162 154 153 159 154 149 158 161 166 169 186 185 183 183 178 184 189 191 205 193 183 185 176 175 160 148 137 125 106 117 115
266 262 267 257 245 241 247 253 259 263 268 293 256 240 212 152 154 153 153 163 173 179 188 196 189 181 188 187 184 185 189 191 177 177 187 180 170 149 149 150 142 146 144 124
262 257 257 251 210 237 256 258 261 267 275 235 232 323 115 107 117 135 148 157 170 199 199 206 197 188 185 166 170 176 186 188 172 172 174 170 158 163 168 166 158 156 151 147
258 258 259 241 208 216 261 270 266 268 264 190 113 220 171 111 95 107 131 141 165 227 217 200 204 185 169 167 174 187 192 191 179 175 179 179 182 185 181 169 166 160 166 161
253 258 263 223 145 163 264 262 238 241 207 138 251 245 222 117 122 128 123 119 189 245 211 188 196 182 184 195 199 202 203 203 191 182 182 189 194 188 178 167 161 157 161 168
247 254 261 166 141 184 246 271 101 149 111 208 271 300 322 155 131 132 143 172 220 211 179 192 189 182 208 229 221 206 194 196 184 176 184 189 190 187 174 166 165 169 165 170
236 246 244 160 191 231 316 51 49 17 356 311 310 10 36 114 143 159 169 197 221 197 182 181 179 180 218 232 227 180 178 186 188 183 184 187 182 185 178 172 174 180 178 182
246 248 201 183 254 309 350 343 351 355 351 325 300 302 240 217 213 211 215 222 215 204 197 185 178 177 203 218 188 195 195 200 199 193 185 181 185 184 179 183 187 192 188 192
263 246 237 249 264 332 334 337 345 335 333 311 273 239 226 233 244 246 232 220 225 210 203 204 198 198 194 188 206 207 207 201 201 193 184 177 176 179 181 187 192 198 194 195
259 268 269 242 258 281 300 311 315 317 311 300 288 266 263 254 252 262 243 222 227 220 209 208 202 200 183 185 204 212 210 190 183 183 182 180 169 184 188 187 190 195 202 199
259 273 276 280 293 289 281 281 286 287 287 289 286 261 263 264 256 244 246 251 243 238 215 212 201 196 187 195 205 205 205 202 202 212 192 178 168 160 145 180 174 174 177 180
276 292 295 293 298 288 271 273 277 276 273 273 272 256 247 252 243 234 244 253 249 242 236 217 199 195 196 210 212 207 209 208 205 208 200 191 186 184 194 202 155 173 178 177
280 285 277 277 280 283 278 273 271 272 273 267 268 262 261 253 237 231 240 246 250 258 243 224 205 202 207 217 221 218 215 211 215 215 206 204 202 197 193 195 198 214 203 190
269 267 269 279 284 280 274 270 264 260 260 262 264 251 251 246 237 233 235 241 238 249 240 229 216 207 201 220 226 221 220 215 221 223 215 208 202 196 196 196 203 196 177 180
272 265 263 267 270 272 268 263 262 262 258 258 256 250 252 251 249 237 227 229 238 241 226 224 227 210 195 216 234 230 220 218 221 222 224 212 202 201 200 202 206 199 195 186
266 256 257 262 265 267 267 264 262 266 264 259 254 248 246 244 239 238 233 232 239 240 224 221 230 217 205 217 225 225 224 222 217 219 220 215 204 202 201 204 209 202 200 188
266 265 262 260 254 252 260 264 261 265 262 263 263 250 243 237 236 239 243 241 231 230 235 206 240 249 230 228 228 219 216 221 226 222 212 208 204 199 201 203 209 207 194 183
262 262 268 274 275 274 269 268 271 274 260 247 248 245 244 247 246 244 245 240 219 231 247 133 264 255 249 233 255 229 217 219 231 230 210 197 201 203 200 200 206 213 195 184
266 258 259 265 270 270 273 274 275 276 274 267 261 261 255 249 241 237 236 227 208 211 221 216 225 242 251 254 278 248 233 224 223 224 218 204 201 204 205 201 203 205 200 195
274 270 266 267 269 274 270 263 258 260 276 271 259 265 273 274 262 245 237 239 212 117 206 239 226 223 232 276 259 242 234 229 225 219 220 220 209 205 207 201 200 199 196 192
276 277 275 274 271 269 265 260 254 251 251 250 255 262 270 270 271 268 251 232 189 163 238 240 211 210 280 278 243 239 232 227 227 223 217 218 214 207 205 201 199 199 193 186
289 284 276 274 270 270 281 278 266 249 247 253 257 259 260 263 256 249 252 235 185 206 243 245 236 230 264 247 236 232 228 223 221 220 220 219 221 215 206 204 200 197 191 186
328 329 320 310 303 295 286 284 277 264 254 263 263 264 261 262 266 263 259 228 221 219 240 232 224 230 247 243 235 229 229 225 218 213 213 217 219 219 212 208 203 199 193 190
319 318 318 316 303 299 299 301 300 295 283 275 273 278 275 261 253 260 258 238 230 231 240 230 235 234 228 235 237 235 231 227 227 222 214 213 214 212 203 199 202 199 198 200
325 320 318 310 307 305 305 310 313 319 305 294 288 294 310 313 262 232 233 236 241 249 242 228 223 226 222 218 228 240 234 219 221 222 212 205 201 203 199 194 197 202 200 199
318 319 327 324 321 318 317 315 300 294 296 297 298 306 300 294 266 223 210 208 211 218 224 230 232 236 217 202 211 228 225 206 189 191 198 191 188 194 193 186 184 185 187 190
Height
1511 1509 1510 1512 1513 1513 1516 1517 1523 1519 1517 1513 1513 1515 1518 1520 1522 1524 1527 1528 1530 1531 1532 1534 1534 1535 1536 1536 1536 1536 1537 1537 1538 1539 1540 1541 1542 1543 1544 1545 1546 1547 1547 1548
1514 1509 1510 1512 1510 1511 1512 1512 1514 1515 1515 1510 1512 1514 1516 1519 1521 1523 1525 1527 1528 1529 1530 1531 1532 1533 1533 1533 1534 1534 1535 1535 1536 1536 1537 1538 1539 1541 1542 1542 1543 1545 1545 1546
1518 1511 1512 1515 1507 1507 1508 1508 1510 1513 1512 1509 1512 1513 1516 1517 1519 1521 1523 1525 1526 1527 1528 1529 1530 1530 1530 1531 1531 1532 1532 1533 1534 1534 1535 1536 1537 1538 1539 1540 1541 1542 1543 1544
1516 1518 1526 1510 1499 1501 1505 1505 1504 1505 1506 1508 1511 1513 1515 1517 1518 1520 1521 1523 1524 1525 1526 1527 1527 1528 1528 1528 1529 1529 1530 1530 1531 1532 1533 1534 1535 1536 1537 1538 1539 1540 1541 1542
1517 1519 1513 1504 1499 1501 1505 1505 1503 1504 1506 1508 1510 1513 1514 1516 1517 1518 1520 1521 1522 1523 1524 1524 1525 1525 1525 1526 1526 1527 1527 1527 1528 1529 1530 1531 1532 1533 1534 1535 1536 1537 1538 1539
1515 1521 1519 1505 1499 1500 1504 1508 1502 1503 1505 1508 1510 1513 1514 1514 1515 1516 1517 1519 1520 1520 1521 1522 1522 1523 1523 1523 1523 1524 1524 1524 1525 1526 1527 1528 1529 1530 1531 1532 1533 1534 1535 1536
1514 1515 1506 1499 1499 1502 1513 1509 1502 1503 1505 1508 1509 1511 1512 1512 1513 1514 1515 1516 1517 1518 1518 1519 1519 1520 1520 1520 1521 1521 1521 1522 1522 1523 1524 1525 1526 1528 1529 1529 1530 1531 1532 1533
1508 1513 1510 1498 1499 1502 1503 1501 1502 1504 1505 1507 1508 1509 1509 1511 1512 1512 1513 1514 1515 1515 1516 1516 1517 1517 1518 1518 1518 1518 1519 1519 1519 1520 1521 1522 1523 1524 1526 1527 1527 1528 1529 1530
1500 1502 1497 1496 1498 1499 1501 1502 1502 1504 1505 1506 1507 1508 1509 1509 1510 1510 1511 1511 1512 1513 1513 1514 1514 1515 1515 1515 1515 1516 1516 1516 1516 1517 1518 1519 1519 1520 1521 1523 1524 1525 1526 1527
1496 1494 1495 1496 1497 1498 1500 1501 1502 1503 1504 1505 1505 1506 1507 1507 1508 1508 1508 1509 1509 1510 1510 1511 1511 1512 1512 1512 1513 1513 1513 1513 1514 1514 1514 1515 1516 1517 1518 1519 1520 1521 1522 1523
1493 1493 1494 1494 1496 1497 1498 1500 1501 1501 1502 1503 1503 1504 1504 1505 1505 1505 1506 1506 1506 1507 1507 1508 1508 1509 1509 1509 1509 1509 1510 1510 1510 1511 1511 1512 1513 1514 1515 1516 1516 1517 1518 1520
1493 1492 1492 1493 1494 1495 1496 1497 1498 1499 1499 1500 1501 1501 1502 1502 1503 1503 1503 1503 1503 1504 1504 1505 1505 1506 1506 1506 1506 1506 1507 1507 1507 1508 1508 1509 1510 1511 1511 1513 1513 1514 1515 1517
1489 1489 1490 1490 1491 1492 1493 1494 1495 1496 1496 1497 1497 1498 1499 1499 1499 1500 1500 1500 1501 1501 1501 1501 1502 1502 1503 1503 1503 1503 1504 1504 1505 1505 1505 1506 1506 1507 1508 1509 1510 1510 1511 1512
1486 1487 1487 1488 1489 1489 1490 1491 1492 1492 1493 1493 1494 1495 1495 1496 1496 1496 1497 1497 1497 1498 1498 1498 1499 1499 1499 1500 1500 1500 1501 1501 1502 1502 1502 1503 1503 1504 1505 1505 1505 1506 1507 1508
1483 1484 1484 1484 1485 1486 1487 1487 1488 1488 1489 1490 1490 1491 1491 1492 1492 1493 1493 1494 1494 1494 1495 1495 1495 1495 1496 1496 1497 1497 1497 1498 1498 1499 1499 1499 1500 1500 1501 1501 1502 1502 1503 1504
1479 1479 1480 1481 1481 1482 1483 1484 1484 1484 1485 1486 1486 1487 1488 1488 1489 1489 1490 1490 1491 1491 1491 1491 1491 1492 1492 1493 1493 1493 1493 1494 1494 1495 1495 1495 1496 1497 1497 1497 1498 1498 1499 1499
1476 1476 1476 1477 1477 1478 1479 1480 1481 1481 1482 1482 1483 1483 1484 1485 1485 1485 1486 1487 1487 1488 1488 1488 1488 1488 1489 1489 1489 1489 1490 1490 1490 1491 1491 1491 1492 1492 1493 1493 1494 1494 1495 1496
1474 1474 1474 1474 1474 1475 1476 1477 1477 1478 1478 1479 1479 1479 1480 1480 1481 1481 1482 1483 1484 1484 1484 1484 1485 1484 1485 1485 1485 1485 1486 1486 1486 1486 1487 1487 1488 1488 1489 1489 1490 1490 1490 1492
1469 1470 1470 1471 1471 1472 1472 1473 1474 1474 1475 1475 1475 1476 1476 1477 1477 1478 1479 1479 1479 1480 1480 1481 1481 1481 1481 1481 1481 1481 1481 1481 1482 1482 1482 1483 1483 1484 1484 1485 1485 1486 1486 1487
1466 1466 1466 1467 1468 1469 1469 1469 1470 1471 1471 1472 1472 1473 1473 1474 1474 1475 1475 1475 1476 1476 1477 1477 1477 1477 1477 1477 1477 1477 1477 1477 1477 1478 1478 1479 1479 1479 1480 1480 1481 1481 1482 1482
1463 1463 1463 1463 1464 1465 1466 1466 1467 1468 1468 1469 1469 1469 1470 1470 1471 1471 1471 1472 1472 1473 1473 1473 1473 1473 1473 1473 1473 1473 1473 1473 1473 1473 1474 1474 1475 1475 1476 1476 1477 1477 1478 1478
1460 1460 1460 1460 1461 1462 1463 1463 1464 1464 1465 1465 1466 1466 1467 1467 1467 1467 1468 1468 1468 1468 1469 1469 1469 1469 1469 1469 1468 1468 1468 1468 1469 1469 1469 1470 1470 1471 1471 1472 1473 1473 1474 1474
1457 1457 1457 1458 1459 1459 1460 1460 1461 1461 1461 1462 1462 1463 1463 1463 1463 1463 1463 1463 1464 1464 1464 1464 1464 1464 1464 1464 1464 1464 1464 1464 1464 1464 1465 1465 1466 1466 1467 1467 1468 1469 1469 1470
1455 1455 1455 1456 1456 1457 1457 1457 1458 1458 1458 1458 1458 1459 1459 1459 1459 1459 1459 1459 1459 1459 1459 1460 1460 1460 1460 1460 1460 1460 1460 1460 1460 1460 1460 1461 1461 1462 1462 1463 1463 1464 1464 1465
1453 1453 1453 1453 1454 1454 1454 1454 1454 1454 1454 1454 1455 1455 1455 1455 1455 1454 1454 1454 1455 1455 1455 1455 1455 1455 1455 1455 1456 1456 1456 1456 1456 1456 1456 1456 1457 1457 1457 1458 1458 1459 1460 1461
1452 1452 1452 1452 1451 1451 1451 1451 1451 1451 1451 1450 1451 1451 1451 1451 1450 1450 1450 1450 1450 1450 1450 1450 1450 1450 1450 1451 1451 1451 1451 1451 1451 1451 1451 1452 1452 1452 1453 1453 1454 1454 1455 1456
1450 1449 1449 1449 1449 1449 1449 1448 1448 1448 1448 1447 1447 1447 1447 1446 1446 1446 1446 1446 1446 1446 1446 1446 1446 1446 1446 1446 1447 1447 1447 1447 1447 1447 1447 1447 1448 1448 1448 1449 1449 1450 1450 1450